FW6864 Weather Reports


time (UTC)temp
C
wind
direction
speed
KPH
gust
KPH
rain 1hr
cm
rain 24hr
cm
rain mn
cm
humidity
%
barometer
mb
20260504050450 6 274 0.0 0.0 0.00 0.00 0.00 78 1017.0
20260504045947 6 271 0.0 0.0 0.00 0.00 0.00 77 1017.0
20260504045443 6 271 0.0 0.0 0.00 0.00 0.00 77 1017.0
20260504044939 6 271 0.0 0.0 0.00 0.00 0.00 77 1017.0
20260504044437 6 273 0.0 0.0 0.00 0.00 0.00 77 1017.0
20260504043934 6 271 0.0 0.0 0.00 0.00 0.00 77 1017.0
20260504043431 6 271 0.0 0.0 0.00 0.00 0.00 77 1017.0
20260504042928 6 273 0.0 0.0 0.00 0.00 0.00 77 1017.0
20260504042425 6 272 0.0 0.0 0.00 0.00 0.00 77 1017.0
20260504041921 6 271 0.0 0.0 0.00 0.00 0.00 76 1017.0
20260504041418 6 273 0.0 0.0 0.00 0.00 0.00 76 1017.0
20260504040914 6 275 0.0 0.0 0.00 0.00 0.00 76 1017.0
20260504040412 6 275 0.0 0.0 0.00 0.00 0.00 76 1017.0
20260504035907 6 279 0.0 0.0 0.00 0.00 0.00 75 1017.0
20260504035405 6 281 0.0 0.0 0.00 0.00 0.00 75 1017.0
20260504034901 6 284 0.0 0.0 0.00 0.00 0.00 74 1017.0
20260504034359 6 286 0.0 0.0 0.00 0.00 0.00 74 1017.0
20260504033856 7 288 0.0 0.0 0.00 0.00 0.00 74 1016.6
20260504033354 7 288 0.0 0.0 0.00 0.00 0.00 74 1016.6
20260504032850 7 290 0.0 0.0 0.00 0.00 0.00 74 1016.6
20260504032347 7 291 0.0 0.0 0.00 0.00 0.00 73 1016.3
20260504031844 7 292 0.0 0.0 0.00 0.00 0.00 73 1016.3
20260504031341 7 291 0.0 0.0 0.00 0.00 0.00 73 1016.3
20260504030837 7 292 0.0 0.0 0.00 0.00 0.00 73 1016.3
20260504030335 7 291 0.0 0.0 0.00 0.00 0.00 72 1016.3
20260504025831 7 291 0.0 0.0 0.00 0.00 0.00 72 1016.3
20260504025328 7 290 0.0 0.0 0.00 0.00 0.00 71 1016.3
20260504024825 7 291 0.0 0.0 0.00 0.00 0.00 71 1016.3
20260504024316 7 292 0.0 0.0 0.00 0.00 0.00 71 1015.9
20260504023813 8 293 0.0 0.0 0.00 0.00 0.00 70 1016.3
20260504023309 8 292 0.0 0.0 0.00 0.00 0.00 70 1016.3
20260504022805 8 292 0.0 0.0 0.00 0.00 0.00 69 1016.3
20260504022304 8 293 0.0 0.0 0.00 0.00 0.00 68 1016.3
20260504021758 8 293 0.0 0.0 0.00 0.00 0.00 67 1016.3
20260504021256 8 293 0.0 0.0 0.00 0.00 0.00 67 1016.3
20260504020753 8 297 0.0 0.0 0.00 0.00 0.00 67 1015.9
20260504020249 8 298 0.0 0.0 0.00 0.00 0.00 67 1015.9
20260504015745 9 298 0.0 0.0 0.00 0.00 0.00 66 1015.9
20260504015242 10 298 0.0 0.0 0.00 0.00 0.00 64 1015.9
20260504014737 10 298 0.0 0.0 0.00 0.00 0.00 63 1016.3
20260504014235 10 298 0.0 0.0 0.00 0.00 0.00 62 1015.9
20260504013732 10 298 0.0 0.0 0.00 0.00 0.00 62 1015.9
20260504013230 10 298 0.0 0.0 0.00 0.00 0.00 61 1015.9
20260504012726 10 298 0.0 0.0 0.00 0.00 0.00 60 1015.9
20260504012224 10 298 0.0 0.0 0.00 0.00 0.00 59 1015.9
20260504011721 11 298 0.0 0.0 0.00 0.00 0.00 58 1015.9
20260504011218 11 298 0.0 0.0 0.00 0.00 0.00 56 1015.9
20260504010714 11 298 0.0 0.0 0.00 0.00 0.00 55 1015.9
20260504010210 11 298 0.0 0.0 0.00 0.00 0.00 54 1015.9
20260504005706 12 298 0.0 0.0 0.00 0.00 0.00 53 1015.9
20260504005203 12 298 0.0 0.0 0.00 0.00 0.00 52 1015.9
20260504004702 12 298 0.0 0.0 0.00 0.00 0.00 51 1015.6
20260504004158 12 298 0.0 0.0 0.00 0.00 0.00 50 1015.6
20260504003654 13 298 0.0 0.0 0.00 0.00 0.00 49 1015.6
20260504003151 13 298 0.0 0.0 0.00 0.00 0.00 47 1015.6
20260504002648 13 298 0.0 0.0 0.00 0.00 0.00 46 1015.6
20260504002145 13 298 0.0 0.0 0.00 0.00 0.00 45 1015.6
20260504001643 14 298 0.0 0.0 0.00 0.00 0.00 43 1015.6
20260504001139 14 298 0.0 0.0 0.00 0.00 0.00 43 1015.3
20260504000636 15 298 0.0 3.2 0.00 0.00 0.00 42 1015.3
20260504000134 15 298 0.0 3.2 0.00 0.00 0.00 41 1015.3
20260503235631 15 298 0.0 3.2 0.00 0.00 0.00 40 1015.3
20260503235128 15 298 0.0 1.6 0.00 0.00 0.00 39 1015.3
20260503234626 15 5 0.0 3.2 0.00 0.00 0.00 37 1015.3
20260503234124 15 5 0.0 3.2 0.00 0.00 0.00 38 1014.9
20260503233621 15 0 0.0 3.2 0.00 0.00 0.00 38 1014.9
20260503233116 15 28 0.0 3.2 0.00 0.00 0.00 37 1014.9
20260503232613 15 32 0.0 3.2 0.00 0.00 0.00 39 1014.9
20260503232111 16 159 0.0 4.8 0.00 0.00 0.00 36 1014.9
20260503231609 16 159 0.0 4.8 0.00 0.00 0.00 38 1014.9
20260503231105 16 159 1.6 6.4 0.00 0.00 0.00 36 1014.9
20260503230602 16 159 1.6 8.0 0.00 0.00 0.00 36 1014.9
20260503230059 16 340 1.6 8.0 0.00 0.00 0.00 37 1014.9
20260503225555 16 161 1.6 8.0 0.00 0.00 0.00 36 1014.9
20260503225050 16 163 1.6 6.4 0.00 0.00 0.00 38 1014.9
20260503224548 16 315 1.6 6.4 0.00 0.00 0.00 38 1014.9
20260503224046 16 242 1.6 8.0 0.00 0.00 0.00 36 1014.9
20260503223544 16 344 1.6 9.7 0.00 0.00 0.00 38 1015.3
20260503223039 16 324 1.6 9.7 0.00 0.00 0.00 37 1015.3
20260503222537 16 232 1.6 9.7 0.00 0.00 0.00 36 1014.9
20260503222035 16 194 1.6 9.7 0.00 0.00 0.00 35 1014.9
20260503221533 16 231 1.6 6.4 0.00 0.00 0.00 36 1014.9
20260503221030 16 330 1.6 8.0 0.00 0.00 0.00 37 1014.9
20260503220526 16 341 3.2 8.0 0.00 0.00 0.00 35 1014.9
20260503220023 16 170 1.6 11.3 0.00 0.00 0.00 36 1014.9
20260503215520 16 301 3.2 11.3 0.00 0.00 0.00 37 1014.9
20260503215017 16 229 3.2 6.4 0.00 0.00 0.00 35 1014.9
20260503214516 16 239 1.6 4.8 0.00 0.00 0.00 35 1014.9
20260503214012 16 271 3.2 8.0 0.00 0.00 0.00 34 1015.3
20260503213510 16 334 3.2 9.7 0.00 0.00 0.00 32 1014.9
20260503213007 16 21 3.2 12.9 0.00 0.00 0.00 35 1015.3
20260503212504 16 176 3.2 12.9 0.00 0.00 0.00 36 1014.9
20260503212001 16 322 3.2 12.9 0.00 0.00 0.00 34 1015.3
20260503211458 16 177 3.2 17.7 0.00 0.00 0.00 35 1015.3
20260503210954 16 175 3.2 17.7 0.00 0.00 0.00 35 1014.9
20260503210452 16 174 4.8 17.7 0.00 0.00 0.00 37 1015.3
20260503205951 17 213 4.8 17.7 0.00 0.00 0.00 34 1014.9
20260503205448 17 0 3.2 12.9 0.00 0.00 0.00 34 1014.9
20260503204944 17 318 3.2 12.9 0.00 0.00 0.00 36 1014.9
20260503204442 17 205 3.2 8.0 0.00 0.00 0.00 34 1014.9
20260503203938 17 210 1.6 19.3 0.00 0.00 0.00 35 1015.3
20260503203436 17 168 1.6 19.3 0.00 0.00 0.00 36 1015.3
20260503202933 17 141 4.8 19.3 0.00 0.00 0.00 35 1015.3
20260503202431 17 351 4.8 19.3 0.00 0.00 0.00 34 1015.3
20260503201930 17 340 3.2 12.9 0.00 0.00 0.00 35 1015.3
20260503201426 17 25 3.2 12.9 0.00 0.00 0.00 36 1015.3
20260503200924 17 155 3.2 16.1 0.00 0.00 0.00 35 1015.3
20260503200420 17 213 4.8 16.1 0.00 0.00 0.00 35 1015.3
20260503195917 17 315 4.8 16.1 0.00 0.00 0.00 35 1015.6
20260503195414 17 5 4.8 16.1 0.00 0.00 0.00 36 1015.6
20260503194910 16 341 3.2 14.5 0.00 0.00 0.00 36 1015.6
20260503194407 16 0 3.2 14.5 0.00 0.00 0.00 36 1015.9
20260503193903 16 167 3.2 14.5 0.00 0.00 0.00 38 1015.9
20260503193358 16 245 3.2 14.5 0.00 0.00 0.00 39 1015.9
20260503192854 16 169 3.2 8.0 0.00 0.00 0.00 35 1015.9
20260503192350 16 217 3.2 9.7 0.00 0.00 0.00 35 1015.9
20260503191847 17 201 3.2 9.7 0.00 0.00 0.00 37 1015.9
20260503191344 16 315 3.2 8.0 0.00 0.00 0.00 38 1015.9
20260503190841 16 184 1.6 24.1 0.00 0.00 0.00 38 1015.9
20260503190338 16 188 3.2 24.1 0.00 0.00 0.00 39 1015.9
20260503185835 16 199 4.8 24.1 0.00 0.00 0.00 37 1015.9
20260503185331 16 183 4.8 24.1 0.00 0.00 0.00 37 1015.9
20260503184826 16 174 3.2 14.5 0.00 0.00 0.00 37 1016.3
20260503184322 16 0 4.8 19.3 0.00 0.00 0.00 38 1016.3
20260503183818 16 316 4.8 19.3 0.00 0.00 0.00 40 1016.3
20260503183315 16 313 4.8 19.3 0.00 0.00 0.00 37 1016.6
20260503182812 15 274 3.2 19.3 0.00 0.00 0.00 39 1016.3
20260503182312 15 220 3.2 14.5 0.00 0.00 0.00 40 1016.6
20260503181808 15 179 4.8 16.1 0.00 0.00 0.00 40 1016.6
20260503181306 15 293 3.2 16.1 0.00 0.00 0.00 39 1016.3
20260503180802 15 213 1.6 12.9 0.00 0.00 0.00 41 1016.6
20260503180300 15 238 3.2 9.7 0.00 0.00 0.00 42 1016.6
20260503175755 15 308 3.2 9.7 0.00 0.00 0.00 41 1016.6
20260503175254 15 305 3.2 20.9 0.00 0.00 0.00 44 1016.6
20260503174749 15 206 3.2 20.9 0.00 0.00 0.00 44 1017.0
20260503174247 15 0 3.2 20.9 0.00 0.00 0.00 42 1017.0
20260503173747 15 78 3.2 19.3 0.00 0.00 0.00 42 1017.0
20260503173244 15 199 4.8 19.3 0.00 0.00 0.00 39 1017.0
20260503172741 15 355 4.8 19.3 0.00 0.00 0.00 40 1017.0
20260503172238 15 264 3.2 19.3 0.00 0.00 0.00 42 1017.0
20260503171734 15 189 3.2 17.7 0.00 0.00 0.00 43 1017.0
20260503171231 14 219 4.8 17.7 0.00 0.00 0.00 42 1017.0
20260503170728 13 344 6.4 22.5 0.00 0.00 0.00 43 1017.0
20260503170225 14 331 6.4 22.5 0.00 0.00 0.00 40 1017.0
20260503160147 13 257 4.8 16.1 0.00 0.00 0.00 44 1017.6
20260503150617 12 302 3.2 14.5 0.00 0.00 0.00 43 1018.0
20260503150113 11 207 3.2 14.5 0.00 0.00 0.00 47 1018.0
20260503131007 8 124 1.6 12.9 0.00 0.00 0.00 60 1018.0
20260503130504 8 328 3.2 16.1 0.00 0.00 0.00 62 1018.0
20260503110355 5 163 0.0 6.4 0.00 0.00 0.00 74 1017.3
20260503090246 5 227 0.0 4.8 0.00 0.00 0.00 77 1015.6
20260503081214 5 113 0.0 3.2 0.00 0.00 0.00 77 1015.3
20260503080709 5 0 0.0 4.8 0.00 0.00 0.00 77 1015.3
20260503080207 5 0 0.0 4.8 0.00 0.00 0.00 77 1014.9
20260503072643 5 291 0.0 8.0 0.00 0.00 0.00 78 1014.6
20260503072140 5 40 0.0 0.0 0.00 0.00 0.00 78 1014.6
20260503071637 5 40 0.0 0.0 0.00 0.00 0.00 77 1014.6
20260503071134 5 39 0.0 0.0 0.00 0.00 0.00 77 1014.6
20260503070631 5 40 0.0 0.0 0.00 0.00 0.00 76 1014.6